Location: Mauries
(43.6188°N, 0.3322°W)
Time: 20:15:11
(UTC+00:00)

Cosmos 1992 Rocket - Pass Details

Date: 14 January 2026
Orbit: 754 x 761 km, 74.0° (Epoch: 10 February)

Event Time Altitude Azimuth Distance (km) Brightness Sun altitude
Exits shadow 05:18:07 30° 348° (NNW) 1,338 5.0 -23.8°
Maximum altitude 05:20:43 76° 68° (ENE) 786 4.1 -23.3°
Drops below altitude 10° 05:25:54 10° 155° (SSE) 2,282 6.9 -22.4°
Sets 05:28:16 0° 157° (SSE) 3,204 7.7 -21.9°
